Weather History for Bradshaw AFB, HI

Change the Weather History Date:

Sunday, January 5, 2014

  Actual Average Record
Temperature  
Mean Temperature 49 °F -  
Max Temperature 59 °F 63 °F 71 °F (2004)
Min Temperature 37 °F 42 °F 37 °F (1999)
Degree Days  
Heating Degree Days 16    
Moisture  
Dew Point 36 °F    
Average Humidity 64    
Maximum Humidity 87    
Minimum Humidity 17    
Precipitation  
Precipitation 0.01 in - - ()
Sea Level Pressure  
Sea Level Pressure 30.18 in    
Wind  
Wind Speed 4 mph (WSW)    
Max Wind Speed 10 mph    
Max Gust Speed 18 mph    
Visibility 12 miles    
Events Rain    
Averages and records for this station are not official NWS values.
T = Trace of Precipitation, MM = Missing Value Source: NWS Daily Summary

Daily Weather History Graph

Daily Weather History Graph

Search for Another Location

Airport:

Trip Planner

Search our weather history database for the weather conditions in past years. The results will help you decide how hot, cold, wet, or windy it might be!

Date:

Astronomy

Jan. 05, 2014 Rise Set
Actual Time 6:58 AM HST 5:57 PM HST
Civil Twilight 6:34 AM HST 6:21 PM HST
Nautical Twilight 6:07 AM HST 6:48 PM HST
Astronomical Twilight 5:40 AM HST 7:15 PM HST
Moon 10:28 AM HST (1/5) 10:50 PM HST (1/5)
Length of Visible Light 11h 47m
Length of Day
10h 59m
Waxing Crescent, 26% of the Moon is Illuminated
Jan 5
Waxing Crescent
Jan 7
First Quarter
Jan 15
Full
Jan 23
Last Quarter
Jan 30
New

Hourly Weather History & Observations

Time (HST) Temp. Windchill Dew Point Humidity Pressure Visibility Wind Dir Wind Speed Gust Speed Precip Events Conditions
12:56 AM 46.6 °F - 39.2 °F 75% 30.20 in 12.0 mi South 2.3 mph - N/A   Mostly Cloudy
1:13 AM 46.4 °F - 41.0 °F 81% 30.20 in 12.0 mi North 2.3 mph - N/A Rain Light Rain
1:43 AM 50.0 °F - 39.2 °F 66% 30.18 in 11.0 mi NW 4.6 mph - N/A   Mostly Cloudy
1:56 AM 50.0 °F - 38.3 °F 64% 30.18 in 12.0 mi WNW 4.6 mph - N/A   Mostly Cloudy
2:56 AM 48.9 °F - 39.9 °F 71% 30.18 in 12.0 mi NW 1.2 mph - N/A   Overcast
3:00 AM 48.2 °F - 41.0 °F 76% 30.18 in 12.0 mi NW 1.2 mph - N/A Rain Light Rain
3:15 AM 48.2 °F - 42.8 °F 82% 30.18 in 8.0 mi SSE 2.3 mph - N/A Rain Light Rain Showers
3:20 AM 48.2 °F - 41.0 °F 76% 30.18 in 8.0 mi SE 2.3 mph - N/A Rain Light Rain Showers
3:33 AM 48.2 °F - 42.8 °F 82% 30.18 in 12.0 mi East 2.3 mph - N/A   Mostly Cloudy
3:56 AM 46.8 °F - 43.2 °F 87% 30.19 in 12.0 mi NNE 4.6 mph - 0.01 in   Overcast
4:56 AM 48.2 °F - 41.9 °F 79% 30.19 in 12.0 mi South 4.6 mph - N/A   Mostly Cloudy
4:58 AM 48.2 °F - 42.8 °F 82% 30.19 in 12.0 mi SE 4.6 mph - N/A   Mostly Cloudy
4:59 AM 48.2 °F - 42.8 °F 82% 30.19 in 11.0 mi SE 4.6 mph - N/A Rain Light Rain
5:16 AM 48.2 °F - 41.0 °F 76% 30.19 in 12.0 mi East 5.8 mph - N/A   Mostly Cloudy
5:56 AM 47.7 °F - 39.7 °F 74% 30.19 in 12.0 mi SE 5.8 mph - N/A   Mostly Cloudy
6:56 AM 49.6 °F - 29.1 °F 45% 30.20 in 12.0 mi North 3.5 mph - N/A   Mostly Cloudy
7:56 AM 54.9 °F - 18.5 °F 24% 30.20 in 12.0 mi WNW 3.5 mph - N/A   Mostly Cloudy
8:56 AM 56.8 °F - 17.2 °F 21% 30.22 in 12.0 mi WNW 6.9 mph - N/A   Mostly Cloudy
9:56 AM 58.3 °F - 26.6 °F 30% 30.22 in 12.0 mi WSW 8.1 mph - N/A   Partly Cloudy
10:56 AM 59.7 °F - 13.8 °F 17% 30.19 in 12.0 mi West 8.1 mph 17.3 mph N/A   Clear
11:56 AM 58.5 °F - 41.2 °F 53% 30.18 in 12.0 mi WSW 8.1 mph 16.1 mph N/A   Partly Cloudy
12:56 PM 59.2 °F - 35.6 °F 41% 30.15 in 12.0 mi West 10.4 mph 18.4 mph N/A   Partly Cloudy
1:56 PM 59.2 °F - 32.4 °F 36% 30.12 in 12.0 mi West 5.8 mph 16.1 mph N/A   Clear
2:56 PM 58.1 °F - 39.0 °F 49% 30.11 in 12.0 mi West 10.4 mph 16.1 mph N/A   Clear
3:56 PM 58.5 °F - 37.4 °F 45% 30.12 in 12.0 mi West 6.9 mph 18.4 mph N/A   Clear
4:56 PM 54.7 °F - 27.9 °F 36% 30.14 in 12.0 mi West 10.4 mph - N/A   Clear
5:56 PM 48.9 °F - 40.6 °F 73% 30.17 in 12.0 mi WSW 6.9 mph 15.0 mph N/A   Clear
6:56 PM 46.6 °F - 41.2 °F 81% 30.19 in 12.0 mi WNW 1.2 mph - N/A   Clear
7:56 PM 43.2 °F - 39.6 °F 87% 30.21 in 12.0 mi NNE 2.3 mph - N/A   Clear
8:56 PM 42.3 °F 38.6 °F 37.2 °F 82% 30.20 in 12.0 mi East 5.8 mph - N/A   Clear
9:56 PM 40.8 °F - 34.2 °F 77% 30.21 in 12.0 mi ESE 1.2 mph - N/A   Clear
10:56 PM 39.4 °F 37.2 °F 31.5 °F 73% 30.21 in 12.0 mi East 3.5 mph - N/A   Clear
11:56 PM 37.8 °F - 33.6 °F 85% 30.22 in 12.0 mi ESE 1.2 mph - N/A   Clear